TimeCST,TemperatureF,Dew PointF,Humidity,Sea Level PressureIn,VisibilityMPH,Wind Direction,Wind SpeedMPH,Gust SpeedMPH,PrecipitationIn,Events,Conditions,WindDirDegrees,DateUTC
12:53 AM,63.0,57.9,84,30.08,10.0,South,15.0,-,N/A,,Clear,190,2013-01-25 06:53:00
1:53 AM,61.0,57.0,87,30.07,10.0,South,13.8,-,N/A,,Clear,190,2013-01-25 07:53:00
2:49 AM,60.8,57.2,88,30.07,10.0,South,16.1,-,N/A,,Mostly Cloudy,190,2013-01-25 08:49:00
2:53 AM,61.0,57.9,90,30.06,10.0,South,17.3,24.2,N/A,,Mostly Cloudy,190,2013-01-25 08:53:00
3:53 AM,62.1,57.9,86,30.06,10.0,SSW,10.4,-,N/A,,Overcast,200,2013-01-25 09:53:00
4:53 AM,62.1,57.9,86,30.06,10.0,South,11.5,-,N/A,,Overcast,190,2013-01-25 10:53:00
5:53 AM,63.0,57.9,84,30.06,10.0,SSW,11.5,-,N/A,,Overcast,210,2013-01-25 11:53:00
6:53 AM,63.0,57.9,84,30.08,10.0,SSW,9.2,-,N/A,,Overcast,200,2013-01-25 12:53:00
7:53 AM,63.0,59.0,87,30.11,10.0,SW,4.6,-,N/A,,Overcast,230,2013-01-25 13:53:00
8:53 AM,63.0,59.0,87,30.12,10.0,SSW,6.9,-,N/A,,Overcast,200,2013-01-25 14:53:00
9:53 AM,64.0,59.0,84,30.15,10.0,SSW,5.8,-,N/A,,Overcast,210,2013-01-25 15:53:00
10:53 AM,66.9,60.1,79,30.14,10.0,SSW,11.5,-,N/A,,Overcast,200,2013-01-25 16:53:00
11:53 AM,64.0,57.9,80,30.14,10.0,NW,9.2,-,N/A,,Overcast,310,2013-01-25 17:53:00
12:06 PM,62.6,55.4,77,30.15,9.0,NNW,8.1,-,N/A,,Overcast,340,2013-01-25 18:06:00
12:53 PM,59.0,52.0,78,30.11,10.0,NNE,5.8,-,N/A,,Overcast,30,2013-01-25 18:53:00
1:53 PM,57.0,50.0,77,30.11,10.0,North,13.8,-,N/A,,Overcast,360,2013-01-25 19:53:00
2:40 PM,55.4,48.2,77,30.12,8.0,NE,8.1,-,N/A,,Overcast,40,2013-01-25 20:40:00
2:53 PM,55.9,48.0,75,30.12,8.0,North,8.1,-,N/A,,Overcast,360,2013-01-25 20:53:00
3:53 PM,54.0,48.0,80,30.13,7.0,North,9.2,-,N/A,,Overcast,360,2013-01-25 21:53:00
4:04 PM,53.6,46.4,77,30.14,6.0,North,6.9,-,N/A,,Haze,360,2013-01-25 22:04:00
4:53 PM,53.1,46.9,80,30.13,7.0,NNE,8.1,-,N/A,,Overcast,20,2013-01-25 22:53:00
5:21 PM,53.6,46.4,77,30.14,7.0,NNE,10.4,-,N/A,,Overcast,20,2013-01-25 23:21:00
5:39 PM,53.6,46.4,77,30.15,7.0,NNE,10.4,-,N/A,,Overcast,20,2013-01-25 23:39:00
5:53 PM,52.0,46.9,83,30.15,7.0,North,9.2,-,N/A,,Overcast,10,2013-01-25 23:53:00
6:37 PM,51.8,46.4,82,30.17,8.0,NNE,8.1,-,N/A,,Overcast,20,2013-01-26 00:37:00
6:53 PM,51.1,46.9,86,30.16,7.0,NNE,9.2,-,N/A,,Overcast,30,2013-01-26 00:53:00
7:53 PM,51.1,46.9,86,30.16,7.0,NNE,8.1,-,N/A,,Overcast,30,2013-01-26 01:53:00
8:30 PM,51.8,46.4,82,30.16,7.0,NE,8.1,-,N/A,,Overcast,40,2013-01-26 02:30:00
8:53 PM,51.1,46.0,83,30.16,7.0,NE,6.9,-,N/A,,Overcast,40,2013-01-26 02:53:00
9:48 PM,51.8,46.4,82,30.16,8.0,East,9.2,-,N/A,,Overcast,80,2013-01-26 03:48:00
9:53 PM,51.1,46.0,83,30.16,8.0,East,6.9,-,N/A,,Overcast,80,2013-01-26 03:53:00
10:03 PM,51.8,46.4,82,30.17,8.0,ENE,5.8,-,N/A,,Overcast,60,2013-01-26 04:03:00
10:53 PM,52.0,46.9,83,30.17,10.0,NE,6.9,-,N/A,,Overcast,50,2013-01-26 04:53:00
11:29 PM,51.8,46.4,82,30.18,10.0,NE,5.8,-,N/A,,Overcast,50,2013-01-26 05:29:00
11:53 PM,51.1,46.9,86,30.18,10.0,ENE,6.9,-,N/A,,Overcast,70,2013-01-26 05:53:00